Location: Bílinka
(49.3579°N, 14.3767°E)
Time: 01:23:20
(UTC+00:00)

CZ-4B DEB - Pass Details

Date: 28 January 2023
Orbit: 839 x 859 km, 99.1° (Epoch: 31 March)

Event Time Altitude Azimuth Distance (km) Brightness Sun altitude
Rises 17:18:07 0° 163° (SSE) 3,380 7.3 -14.1°
Reaches altitude 10° 17:20:27 10° 164° (SSE) 2,450 6.6 -14.5°
Maximum altitude 17:25:54 87° 254° (WSW) 848 4.2 -15.3°
Drops below altitude 10° 17:31:24 10° 344° (NNW) 2,472 6.7 -16.2°
Sets 17:33:47 0° 345° (NNW) 3,413 7.4 -16.6°
